FW8575 Weather Reports


time (UTC)temp
F
wind
direction
speed
knots
gust
knots
rain 1hr
in
rain 24hr
in
rain mn
in
humidity
%
barometer
mb
20260505010005 69 189 3.5 7.0 0.00 0.00 0.00 65 999.5
20260505005505 69 194 2.6 7.0 0.00 0.00 0.00 64 999.6
20260505005004 69 211 4.3 10.4 0.00 0.00 0.00 64 999.6
20260505004505 69 210 5.2 10.4 0.00 0.00 0.00 63 999.5
20260505004004 69 207 7.0 11.3 0.00 0.00 0.00 63 999.5
20260505003505 69 202 7.0 15.6 0.00 0.00 0.00 63 999.6
20260505003004 69 202 5.2 10.4 0.00 0.00 0.00 62 999.6
20260505002505 70 187 5.2 10.4 0.00 0.00 0.00 62 999.5
20260505002004 70 208 10.4 19.1 0.00 0.00 0.00 61 999.5
20260505001504 70 214 6.1 10.4 0.00 0.00 0.00 60 999.4
20260505001004 70 207 6.1 12.2 0.00 0.00 0.00 60 999.5
20260505000505 70 226 8.7 15.6 0.00 0.00 0.00 59 999.5
20260505000004 71 215 7.8 13.9 0.00 0.00 0.00 58 999.5
20260504235504 71 228 10.4 18.2 0.00 0.00 0.00 57 999.6
20260504235004 71 225 7.8 15.6 0.00 0.00 0.00 57 999.6
20260504234505 71 196 6.1 13.9 0.00 0.00 0.00 56 999.5
20260504234005 72 232 11.3 20.9 0.00 0.00 0.00 55 999.5
20260504233004 72 221 6.1 18.2 0.00 0.00 0.00 55 999.5
20260504232505 72 225 14.8 22.6 0.00 0.00 0.00 53 999.6
20260504231505 72 210 9.6 22.6 0.00 0.00 0.00 52 999.6
20260504230505 73 223 14.8 22.6 0.00 0.00 0.00 50 999.6
20260504230005 73 210 13.9 27.8 0.00 0.00 0.00 49 999.7
20260504225004 73 209 13.0 24.3 0.00 0.00 0.00 48 999.8
20260504224005 74 226 12.2 22.6 0.00 0.00 0.00 48 999.7
20260504222505 75 214 11.3 20.0 0.00 0.00 0.00 47 999.6
20260504221504 75 227 11.3 22.6 0.00 0.00 0.00 45 999.6
20260504221005 75 206 13.9 26.1 0.00 0.00 0.00 45 999.4
20260504220504 75 226 11.3 28.7 0.00 0.00 0.00 46 999.4
20260504220005 76 216 13.9 25.2 0.00 0.00 0.00 46 999.5
20260504215504 76 224 13.9 26.9 0.00 0.00 0.00 46 999.5
20260504214005 76 233 15.6 27.8 0.00 0.00 0.00 46 999.4
20260504213504 76 224 12.2 25.2 0.00 0.00 0.00 47 999.4
20260504213004 76 214 11.3 20.9 0.00 0.00 0.00 47 999.3
20260504212504 76 219 17.4 26.9 0.00 0.00 0.00 46 999.3
20260504212004 76 224 10.4 27.8 0.00 0.00 0.00 46 999.5
20260504211005 76 236 13.0 22.6 0.00 0.00 0.00 48 999.5
20260504210504 76 229 14.8 24.3 0.00 0.00 0.00 49 999.4
20260504210004 76 213 8.7 17.4 0.00 0.00 0.00 50 999.4
20260504205004 76 225 10.4 20.0 0.00 0.00 0.00 50 999.7
20260504204505 76 229 12.2 22.6 0.00 0.00 0.00 49 999.8
20260504203505 76 231 11.3 20.0 0.00 0.00 0.00 49 999.8
20260504203004 76 209 8.7 19.1 0.00 0.00 0.00 49 999.8
20260504202504 76 208 7.8 17.4 0.00 0.00 0.00 50 999.9
20260504202005 76 238 9.6 18.2 0.00 0.00 0.00 49 999.9
20260504201506 75 224 12.2 20.0 0.00 0.00 0.00 49 1000.1
20260504201004 76 236 8.7 19.1 0.00 0.00 0.00 50 1000.2
20260504200504 76 215 7.8 20.9 0.00 0.00 0.00 52 1000.3
20260504200004 75 209 7.8 18.2 0.00 0.00 0.00 52 1000.4
20260504195504 75 216 11.3 19.1 0.00 0.00 0.00 51 1000.4
20260504195004 75 227 12.2 19.1 0.00 0.00 0.00 51 1000.5
20260504194505 74 225 10.4 18.2 0.00 0.00 0.00 52 1000.5
20260504194004 74 214 11.3 18.2 0.00 0.00 0.00 52 1000.8
20260504193504 74 223 11.3 20.9 0.00 0.00 0.00 52 1000.9
20260504193004 74 214 10.4 19.1 0.00 0.00 0.00 52 1000.8
20260504192504 74 219 8.7 17.4 0.00 0.00 0.00 53 1000.8
20260504192004 73 219 7.8 13.0 0.00 0.00 0.00 54 1000.9
20260504191003 73 194 8.7 22.6 0.00 0.00 0.00 54 1000.8
20260504190004 75 237 12.2 22.6 0.00 0.00 0.00 53 1000.9
20260504185504 74 212 10.4 19.1 0.00 0.00 0.00 53 1001.0
20260504185004 74 223 11.3 17.4 0.00 0.00 0.00 53 1001.1
20260504184505 74 221 8.7 20.0 0.00 0.00 0.00 54 1001.0
20260504184004 74 211 9.6 20.0 0.00 0.00 0.00 55 1001.1
20260504183504 74 234 7.8 20.0 0.00 0.00 0.00 55 1001.3
20260504183004 73 198 11.3 22.6 0.00 0.00 0.00 54 1001.4
20260504182504 73 226 7.8 18.2 0.00 0.00 0.00 55 1001.4
20260504182003 73 213 9.6 22.6 0.00 0.00 0.00 55 1001.5
20260504181504 73 238 10.4 17.4 0.00 0.00 0.00 55 1001.5
20260504181004 72 203 7.0 19.1 0.00 0.00 0.00 55 1001.6
20260504180004 72 222 8.7 15.6 0.00 0.00 0.00 54 1001.7
20260504175504 72 211 7.0 13.0 0.00 0.00 0.00 55 1001.7
20260504175004 72 221 7.0 13.0 0.00 0.00 0.00 54 1001.8
20260504174504 71 223 7.0 15.6 0.00 0.00 0.00 53 1001.9
20260504174004 72 226 7.0 15.6 0.00 0.00 0.00 53 1002.1
20260504173504 71 201 7.8 15.6 0.00 0.00 0.00 52 1002.2
20260504173003 72 191 7.8 15.6 0.00 0.00 0.00 51 1002.2
20260504172504 72 180 5.2 15.6 0.00 0.00 0.00 51 1002.3
20260504171504 72 221 8.7 17.4 0.00 0.00 0.00 49 1002.5
20260504171004 71 213 7.8 17.4 0.00 0.00 0.00 49 1002.7
20260504170504 71 220 6.1 12.2 0.00 0.00 0.00 47 1002.7
20260504150506 64 232 7.0 11.3 0.00 0.00 0.00 61 1004.0
20260504141006 60 219 5.2 10.4 0.00 0.00 0.00 67 1004.4
20260504140506 60 230 4.3 10.4 0.00 0.00 0.00 67 1004.4
20260504130507 55 215 6.1 11.3 0.00 0.00 0.00 72 1005.0
20260504110505 49 218 4.3 7.8 0.00 0.00 0.00 78 1005.1
20260504100506 48 223 1.7 5.2 0.00 0.00 0.00 78 1005.0
20260504082005 48 187 1.7 5.2 0.00 0.00 0.00 79 1005.3
20260504081505 48 190 1.7 5.2 0.00 0.00 0.00 78 1005.5
20260504080505 48 202 0.9 6.1 0.00 0.00 0.00 78 1005.6
20260504050505 49 218 1.7 5.2 0.00 0.00 0.00 76 1008.0
20260504050005 49 181 1.7 5.2 0.00 0.00 0.00 76 1008.1
20260504045505 49 197 2.6 5.2 0.00 0.00 0.00 76 1008.0
20260504045005 49 214 1.7 5.2 0.00 0.00 0.00 76 1008.0
20260504044005 49 192 0.9 4.3 0.00 0.00 0.00 76 1008.1
20260504043504 49 196 1.7 6.1 0.00 0.00 0.00 76 1008.1
20260504042505 49 203 3.5 7.0 0.00 0.00 0.00 76 1008.1
20260504042005 49 219 1.7 5.2 0.00 0.00 0.00 76 1008.1
20260504041505 49 191 3.5 6.1 0.00 0.00 0.00 75 1008.1
20260504041005 49 172 1.7 7.8 0.00 0.00 0.00 75 1008.2
20260504040505 50 201 1.7 6.1 0.00 0.00 0.00 74 1008.2
20260504040005 50 191 2.6 10.4 0.00 0.00 0.00 74 1008.3
20260504035505 50 197 2.6 7.0 0.00 0.00 0.00 74 1008.4
20260504035004 50 195 4.3 7.8 0.00 0.00 0.00 74 1008.4
20260504034505 50 180 1.7 7.0 0.00 0.00 0.00 74 1008.5
20260504034004 50 184 4.3 7.8 0.00 0.00 0.00 74 1008.5
20260504033505 50 205 1.7 7.0 0.00 0.00 0.00 74 1008.6
20260504032505 50 204 3.5 6.1 0.00 0.00 0.00 75 1008.7
20260504032004 49 166 2.6 8.7 0.00 0.00 0.00 75 1008.6
20260504031505 49 140 1.7 7.8 0.00 0.00 0.00 75 1008.7
20260504030505 49 170 2.6 7.8 0.00 0.00 0.00 75 1008.7
20260504030005 49 159 2.6 7.8 0.00 0.00 0.00 75 1008.9
20260504025505 49 159 1.7 6.1 0.00 0.00 0.00 75 1008.9
20260504025005 49 154 2.6 7.0 0.00 0.00 0.00 75 1008.9
20260504024004 49 172 0.9 4.3 0.00 0.00 0.00 75 1009.1
20260504023505 49 187 1.7 7.0 0.00 0.00 0.00 75 1009.1
20260504022505 49 154 2.6 6.1 0.00 0.00 0.00 74 1009.2
20260504022005 49 168 2.6 7.0 0.00 0.00 0.00 74 1009.2
20260504021005 49 163 1.7 7.0 0.00 0.00 0.00 74 1009.2
20260504020506 49 156 0.9 7.0 0.00 0.00 0.00 74 1009.2
20260504015005 49 139 1.7 6.1 0.00 0.00 0.00 73 1009.2
20260504014005 49 155 2.6 6.1 0.00 0.00 0.00 72 1009.2
20260504013505 49 149 4.3 7.0 0.00 0.00 0.00 72 1009.2
20260504013005 50 153 1.7 7.0 0.00 0.00 0.00 72 1009.2
20260504012504 50 178 0.9 6.1 0.00 0.00 0.00 71 1009.2
20260504011505 50 153 3.5 7.0 0.00 0.00 0.00 71 1009.2
20260504011005 50 147 2.6 6.1 0.00 0.00 0.00 71 1009.2
20260504010505 50 163 2.6 7.0 0.00 0.00 0.00 71 1009.2